Location: Albany
(42.6526°N, 73.7562°W)
Time: 22:42:50
(UTC+00:00)

SKYMED 2 - Pass Details

Date: 19 November 2019
Orbit: 621 x 623 km, 97.9° (Epoch: 11 December)

Event Time Altitude Azimuth Distance (km) Brightness Sun altitude
Exits shadow 23:14:17 - 9° (N) 2,346 6.3 -19.2°
Reaches altitude 10° 23:15:07 10° 9° (N) 2,000 6.0 -19.3°
Maximum altitude 23:19:27 72° 285° (WNW) 658 3.7 -20.1°
Drops below altitude 10° 23:23:45 10° 201° (SSW) 1,984 6.5 -20.9°
Sets 23:25:56 0° 200° (SSW) 2,886 7.4 -21.3°
